Location: Lango�lan
(48.1202°N, 3.2340°W)
Time: 10:48:09
(UTC+00:00)

SJ-12 - Pass Details

Date: 23 October 2019
Orbit: 569 x 585 km, 97.6° (Epoch: 14 November)

Event Time Altitude Azimuth Distance (km) Brightness Sun altitude
Rises 05:49:33 0° 10° (N) 2,797 7.5 -9.7°
Reaches altitude 10° 05:51:43 10° 8° (N) 1,896 6.6 -9.3°
Maximum altitude 05:55:48 68° 286° (WNW) 625 3.9 -8.7°
Drops below altitude 10° 05:59:52 10° 204° (SSW) 1,890 6.4 -8.0°
Sets 06:02:01 0° 201° (SSW) 2,787 7.3 -7.6°
